Back to catalog

COSMOS 886 DEB

AliveUNKNOWN
NORAD 14799·DEBRIS·🇷🇺 Russia

Launched Dec 27, 1976 from Baikonur Cosmodrome

Loading…

Next Passes (next 24 hours)

TLE

FreshSource: Space-Track

Epoch: Sep 14, 2026, 00:29 UTC

1 14799U 76126BR  26257.02035926  .00000037  00000-0  54347-3 0  9997
2 14799  65.8082 107.6315 0880647  13.7732 134.8443 11.69570083830480

Track COSMOS 886 DEB in real time with AllMySat

Download on the App Store